QPF
0.00 0.00 0.00 0.00 0.00 0.00 0.00 0.00 0.00 0.00 0.00 0.00 0.00 0.00 0.00 0.01 0.01 0.01 0.01 0.01 0.01 0.01 0.01 0.01 0.01 0.01 0.01 0.01 0.00 0.00 0.00 0.01 0.01 0.01 0.01 0.01 0.01 0.01 0.01 0.02 0.02 0.02 0.02 0.02
0.00 0.00 0.00 0.00 0.00 0.00 0.00 0.00 0.00 0.00 0.00 0.00 0.01 0.01 0.01 0.01 0.01 0.01 0.01 0.02 0.03 0.03 0.03 0.03 0.03 0.02 0.02 0.01 0.01 0.00 0.00 0.00 0.01 0.00 0.00 0.00 0.00 0.00 0.00 0.01 0.02 0.01 0.02 0.03
0.01 0.00 0.00 0.00 0.00 0.01 0.01 0.01 0.01 0.01 0.01 0.00 0.00 0.00 0.00 0.00 0.00 0.01 0.01 0.01 0.01 0.01 0.01 0.01 0.01 0.01 0.01 0.01 0.01 0.01 0.01 0.01 0.00 0.00 0.00 0.00 0.00 0.00 0.00 0.00 0.00 0.01 0.01 0.02
0.01 0.01 0.01 0.01 0.00 0.01 0.02 0.02 0.01 0.02 0.01 0.01 0.00 0.00 0.00 0.00 0.00 0.00 0.00 0.01 0.01 0.01 0.01 0.01 0.01 0.01 0.01 0.01 0.02 0.02 0.01 0.01 0.00 0.00 0.00 0.00 0.00 0.00 0.00 0.00 0.00 0.00 0.01 0.01
0.01 0.01 0.01 0.01 0.01 0.01 0.02 0.01 0.01 0.01 0.01 0.01 0.00 0.00 0.00 0.00 0.00 0.00 0.00 0.00 0.00 0.01 0.01 0.01 0.01 0.01 0.01 0.02 0.02 0.02 0.01 0.01 0.00 0.00 0.00 0.01 0.01 0.01 0.01 0.00 0.00 0.00 0.01 0.01
0.00 0.01 0.01 0.03 0.02 0.02 0.02 0.03 0.01 0.01 0.01 0.01 0.00 0.00 0.00 0.00 0.00 0.00 0.00 0.00 0.00 0.01 0.01 0.01 0.00 0.00 0.01 0.02 0.02 0.01 0.01 0.01 0.00 0.00 0.00 0.01 0.01 0.01 0.01 0.01 0.00 0.00 0.00 0.00
0.00 0.01 0.01 0.03 0.02 0.01 0.03 0.02 0.01 0.02 0.02 0.01 0.01 0.01 0.01 0.00 0.01 0.00 0.01 0.01 0.01 0.01 0.01 0.01 0.00 0.00 0.00 0.01 0.02 0.01 0.01 0.01 0.00 0.00 0.00 0.01 0.01 0.01 0.01 0.01 0.01 0.00 0.00 0.00
0.01 0.01 0.02 0.01 0.00 0.01 0.02 0.02 0.01 0.02 0.02 0.02 0.01 0.01 0.01 0.01 0.01 0.01 0.01 0.01 0.01 0.01 0.01 0.01 0.00 0.00 0.00 0.00 0.02 0.02 0.02 0.01 0.01 0.01 0.01 0.01 0.01 0.01 0.01 0.01 0.01 0.01 0.01 0.00
0.01 0.02 0.02 0.01 0.01 0.01 0.02 0.02 0.01 0.02 0.02 0.02 0.01 0.01 0.00 0.00 0.00 0.01 0.01 0.01 0.01 0.02 0.02 0.02 0.01 0.01 0.01 0.00 0.01 0.02 0.01 0.01 0.01 0.01 0.01 0.01 0.01 0.01 0.01 0.01 0.01 0.01 0.01 0.00
0.01 0.01 0.01 0.00 0.01 0.01 0.02 0.02 0.02 0.02 0.02 0.02 0.02 0.01 0.01 0.00 0.00 0.00 0.00 0.00 0.00 0.01 0.02 0.02 0.02 0.01 0.01 0.01 0.00 0.01 0.01 0.01 0.01 0.01 0.01 0.01 0.01 0.01 0.01 0.01 0.01 0.01 0.01 0.01
0.02 0.02 0.02 0.01 0.01 0.01 0.01 0.01 0.01 0.01 0.01 0.02 0.02 0.02 0.02 0.01 0.01 0.01 0.00 0.00 0.00 0.00 0.01 0.01 0.01 0.01 0.01 0.01 0.01 0.00 0.01 0.01 0.01 0.00 0.01 0.01 0.01 0.01 0.02 0.01 0.01 0.01 0.01 0.01
0.02 0.01 0.01 0.02 0.02 0.01 0.01 0.01 0.00 0.00 0.00 0.01 0.01 0.01 0.01 0.01 0.01 0.01 0.01 0.00 0.00 0.00 0.00 0.01 0.01 0.01 0.01 0.01 0.01 0.01 0.01 0.01 0.01 0.01 0.01 0.01 0.01 0.02 0.02 0.02 0.02 0.02 0.02 0.02
0.01 0.01 0.01 0.01 0.01 0.01 0.01 0.01 0.01 0.00 0.00 0.00 0.00 0.00 0.00 0.00 0.00 0.01 0.01 0.00 0.00 0.00 0.00 0.00 0.00 0.01 0.01 0.01 0.01 0.01 0.01 0.01 0.01 0.01 0.01 0.02 0.02 0.02 0.02 0.02 0.02 0.03 0.02 0.02
0.00 0.00 0.00 0.00 0.00 0.00 0.01 0.01 0.00 0.00 0.00 0.00 0.00 0.00 0.00 0.00 0.00 0.00 0.00 0.00 0.00 0.00 0.00 0.00 0.00 0.01 0.01 0.01 0.01 0.02 0.02 0.02 0.01 0.01 0.01 0.02 0.03 0.03 0.02 0.01 0.01 0.02 0.02 0.02
0.00 0.00 0.00 0.00 0.00 0.00 0.01 0.01 0.00 0.00 0.00 0.00 0.00 0.00 0.00 0.00 0.00 0.00 0.00 0.00 0.00 0.00 0.00 0.00 0.00 0.00 0.01 0.01 0.01 0.01 0.02 0.02 0.02 0.01 0.02 0.02 0.02 0.02 0.02 0.02 0.01 0.01 0.01 0.03
0.00 0.00 0.00 0.00 0.00 0.00 0.01 0.01 0.01 0.00 0.00 0.00 0.00 0.00 0.00 0.00 0.00 0.00 0.00 0.00 0.00 0.00 0.00 0.00 0.00 0.00 0.00 0.01 0.01 0.01 0.01 0.01 0.02 0.01 0.01 0.02 0.02 0.02 0.01 0.01 0.01 0.01 0.01 0.03
0.00 0.00 0.00 0.00 0.00 0.00 0.00 0.01 0.01 0.01 0.00 0.00 0.00 0.00 0.00 0.00 0.00 0.00 0.00 0.00 0.00 0.00 0.00 0.00 0.00 0.00 0.00 0.00 0.01 0.01 0.01 0.01 0.02 0.01 0.01 0.01 0.01 0.01 0.01 0.01 0.01 0.01 0.01 0.02
0.01 0.01 0.01 0.00 0.00 0.00 0.00 0.01 0.00 0.01 0.00 0.00 0.00 0.00 0.00 0.00 0.00 0.00 0.01 0.01 0.01 0.01 0.01 0.01 0.01 0.01 0.01 0.01 0.01 0.01 0.01 0.02 0.02 0.02 0.02 0.02 0.02 0.02 0.01 0.01 0.01 0.01 0.01 0.01
0.01 0.01 0.01 0.01 0.00 0.00 0.00 0.01 0.01 0.01 0.00 0.00 0.00 0.00 0.00 0.00 0.00 0.00 0.01 0.01 0.01 0.01 0.01 0.01 0.01 0.01 0.01 0.01 0.01 0.01 0.01 0.01 0.01 0.01 0.02 0.02 0.02 0.02 0.02 0.02 0.02 0.01 0.01 0.01
0.01 0.01 0.01 0.01 0.00 0.00 0.00 0.01 0.01 0.01 0.00 0.00 0.00 0.00 0.00 0.00 0.00 0.00 0.01 0.01 0.01 0.01 0.01 0.01 0.01 0.01 0.01 0.02 0.01 0.01 0.01 0.01 0.01 0.01 0.01 0.01 0.01 0.01 0.01 0.01 0.02 0.02 0.02 0.02
0.00 0.00 0.00 0.00 0.00 0.00 0.00 0.00 0.01 0.01 0.01 0.00 0.00 0.00 0.00 0.00 0.00 0.00 0.01 0.01 0.01 0.01 0.01 0.01 0.01 0.01 0.01 0.01 0.01 0.01 0.01 0.01 0.01 0.01 0.00 0.01 0.01 0.01 0.01 0.01 0.02 0.02 0.03 0.03
0.00 0.00 0.00 0.00 0.00 0.00 0.00 0.00 0.01 0.01 0.01 0.01 0.01 0.01 0.01 0.01 0.01 0.01 0.01 0.00 0.00 0.01 0.01 0.01 0.01 0.01 0.01 0.01 0.01 0.01 0.01 0.01 0.01 0.01 0.01 0.01 0.01 0.01 0.02 0.02 0.02 0.02 0.02 0.03
0.00 0.00 0.00 0.00 0.00 0.00 0.00 0.01 0.01 0.01 0.01 0.02 0.02 0.02 0.02 0.02 0.01 0.00 0.00 0.00 0.00 0.01 0.01 0.01 0.01 0.01 0.01 0.01 0.01 0.01 0.02 0.02 0.02 0.02 0.02 0.02 0.03 0.03 0.03 0.03 0.03 0.02 0.02 0.02
0.00 0.00 0.00 0.00 0.00 0.00 0.01 0.01 0.01 0.02 0.02 0.02 0.03 0.02 0.01 0.01 0.00 0.00 0.00 0.00 0.00 0.00 0.00 0.01 0.01 0.01 0.01 0.01 0.01 0.02 0.03 0.03 0.03 0.04 0.03 0.03 0.03 0.03 0.03 0.03 0.03 0.02 0.02 0.02
0.00 0.00 0.00 0.00 0.00 0.00 0.00 0.01 0.01 0.01 0.02 0.02 0.03 0.02 0.01 0.01 0.00 0.00 0.00 0.00 0.00 0.01 0.01 0.01 0.01 0.01 0.01 0.01 0.01 0.02 0.02 0.02 0.03 0.03 0.03 0.03 0.03 0.03 0.02 0.03 0.03 0.03 0.03 0.03
0.00 0.00 0.00 0.00 0.00 0.00 0.00 0.00 0.01 0.01 0.01 0.02 0.02 0.02 0.01 0.01 0.01 0.00 0.00 0.01 0.01 0.01 0.01 0.01 0.01 0.01 0.01 0.01 0.02 0.01 0.01 0.01 0.02 0.02 0.02 0.02 0.02 0.02 0.02 0.02 0.03 0.03 0.03 0.02
0.00 0.00 0.00 0.00 0.00 0.00 0.00 0.01 0.01 0.01 0.01 0.01 0.01 0.02 0.02 0.02 0.01 0.01 0.01 0.01 0.01 0.01 0.01 0.01 0.01 0.01 0.01 0.01 0.01 0.01 0.01 0.01 0.01 0.01 0.01 0.01 0.01 0.01 0.01 0.01 0.02 0.02 0.02 0.02
MSLP
1018.93 1019.26 1019.60 1019.91 1020.17 1020.33 1020.37 1020.28 1020.05 1019.72 1019.31 1018.86 1018.41 1017.99 1017.63 1017.33 1017.08 1016.86 1016.65 1016.43 1016.17 1015.88 1015.57 1015.24 1014.94 1014.67 1014.47 1014.36 1014.34 1014.41 1014.56 1014.78 1015.06 1015.38 1015.74 1016.12 1016.52 1016.95 1017.38 1017.80 1018.22 1018.61 1018.96 1019.27
1019.41 1019.68 1019.91 1020.09 1020.18 1020.19 1020.11 1019.95 1019.72 1019.47 1019.19 1018.94 1018.72 1018.53 1018.38 1018.24 1018.10 1017.92 1017.70 1017.41 1017.06 1016.67 1016.25 1015.85 1015.48 1015.19 1014.99 1014.88 1014.87 1014.94 1015.07 1015.24 1015.45 1015.69 1015.94 1016.22 1016.53 1016.86 1017.22 1017.59 1017.96 1018.32 1018.66 1018.96
1020.10 1020.31 1020.44 1020.49 1020.45 1020.33 1020.15 1019.93 1019.70 1019.50 1019.34 1019.24 1019.20 1019.20 1019.21 1019.20 1019.15 1019.00 1018.76 1018.43 1018.01 1017.54 1017.06 1016.61 1016.23 1015.93 1015.75 1015.66 1015.67 1015.74 1015.85 1015.98 1016.13 1016.27 1016.43 1016.60 1016.80 1017.03 1017.30 1017.60 1017.93 1018.26 1018.57 1018.87
1020.89 1021.04 1021.09 1021.04 1020.88 1020.66 1020.39 1020.12 1019.89 1019.73 1019.65 1019.67 1019.76 1019.90 1020.03 1020.12 1020.12 1020.01 1019.77 1019.40 1018.95 1018.44 1017.94 1017.48 1017.10 1016.84 1016.68 1016.64 1016.67 1016.75 1016.86 1016.96 1017.05 1017.12 1017.19 1017.26 1017.36 1017.50 1017.69 1017.93 1018.20 1018.49 1018.77 1019.05
1021.63 1021.72 1021.69 1021.55 1021.32 1021.01 1020.69 1020.39 1020.16 1020.03 1020.01 1020.11 1020.29 1020.52 1020.74 1020.89 1020.94 1020.86 1020.63 1020.27 1019.81 1019.31 1018.82 1018.39 1018.05 1017.83 1017.72 1017.72 1017.80 1017.90 1018.01 1018.10 1018.15 1018.17 1018.16 1018.16 1018.19 1018.26 1018.38 1018.55 1018.77 1019.02 1019.27 1019.51
1022.18 1022.20 1022.10 1021.89 1021.59 1021.24 1020.89 1020.58 1020.36 1020.26 1020.29 1020.44 1020.69 1020.98 1021.26 1021.46 1021.56 1021.50 1021.31 1020.98 1020.56 1020.09 1019.65 1019.27 1018.99 1018.83 1018.79 1018.84 1018.96 1019.09 1019.21 1019.30 1019.33 1019.32 1019.27 1019.23 1019.20 1019.21 1019.28 1019.40 1019.57 1019.78 1019.98 1020.18
1022.43 1022.37 1022.21 1021.95 1021.62 1021.25 1020.90 1020.61 1020.42 1020.35 1020.43 1020.63 1020.92 1021.26 1021.58 1021.82 1021.96 1021.95 1021.80 1021.53 1021.17 1020.77 1020.40 1020.09 1019.89 1019.79 1019.81 1019.91 1020.06 1020.22 1020.36 1020.45 1020.49 1020.47 1020.41 1020.34 1020.28 1020.26 1020.29 1020.37 1020.50 1020.65 1020.81 1020.96
1022.31 1022.19 1021.98 1021.69 1021.36 1021.02 1020.70 1020.46 1020.32 1020.31 1020.44 1020.68 1021.01 1021.38 1021.73 1022.01 1022.19 1022.23 1022.14 1021.94 1021.66 1021.35 1021.06 1020.83 1020.69 1020.66 1020.72 1020.86 1021.04 1021.23 1021.38 1021.48 1021.53 1021.51 1021.45 1021.38 1021.31 1021.27 1021.27 1021.32 1021.40 1021.51 1021.61 1021.70
1021.87 1021.68 1021.45 1021.18 1020.88 1020.60 1020.36 1020.20 1020.14 1020.20 1020.38 1020.67 1021.03 1021.42 1021.80 1022.11 1022.32 1022.42 1022.39 1022.26 1022.06 1021.84 1021.63 1021.47 1021.39 1021.40 1021.50 1021.66 1021.86 1022.05 1022.21 1022.33 1022.38 1022.38 1022.33 1022.26 1022.19 1022.14 1022.12 1022.13 1022.17 1022.22 1022.27 1022.30
1021.17 1020.96 1020.73 1020.50 1020.29 1020.10 1019.98 1019.92 1019.97 1020.11 1020.36 1020.69 1021.08 1021.48 1021.87 1022.20 1022.44 1022.57 1022.60 1022.54 1022.42 1022.27 1022.13 1022.03 1022.00 1022.03 1022.14 1022.31 1022.49 1022.68 1022.84 1022.96 1023.02 1023.03 1023.00 1022.93 1022.86 1022.80 1022.76 1022.73 1022.72 1022.72 1022.72 1022.69
1020.35 1020.13 1019.95 1019.80 1019.70 1019.65 1019.66 1019.74 1019.90 1020.14 1020.45 1020.82 1021.22 1021.63 1022.02 1022.35 1022.60 1022.76 1022.83 1022.82 1022.76 1022.67 1022.58 1022.52 1022.52 1022.56 1022.67 1022.81 1022.98 1023.15 1023.29 1023.40 1023.47 1023.48 1023.45 1023.40 1023.33 1023.25 1023.18 1023.12 1023.06 1023.00 1022.94 1022.86
1019.52 1019.34 1019.23 1019.20 1019.24 1019.34 1019.51 1019.73 1020.01 1020.33 1020.70 1021.10 1021.51 1021.91 1022.28 1022.59 1022.84 1023.01 1023.10 1023.13 1023.11 1023.06 1023.01 1022.98 1022.98 1023.02 1023.11 1023.22 1023.36 1023.50 1023.62 1023.72 1023.77 1023.79 1023.76 1023.71 1023.63 1023.54 1023.44 1023.34 1023.23 1023.11 1022.99 1022.86
1018.78 1018.66 1018.66 1018.76 1018.95 1019.21 1019.53 1019.89 1020.27 1020.68 1021.09 1021.51 1021.91 1022.28 1022.62 1022.91 1023.14 1023.30 1023.41 1023.46 1023.47 1023.46 1023.43 1023.41 1023.42 1023.45 1023.51 1023.59 1023.69 1023.80 1023.89 1023.97 1024.02 1024.03 1024.01 1023.95 1023.86 1023.75 1023.62 1023.48 1023.32 1023.15 1022.98 1022.80
1018.19 1018.16 1018.26 1018.49 1018.83 1019.24 1019.69 1020.17 1020.64 1021.11 1021.55 1021.97 1022.35 1022.69 1022.99 1023.24 1023.45 1023.61 1023.73 1023.80 1023.83 1023.84 1023.84 1023.84 1023.84 1023.86 1023.90 1023.95 1024.02 1024.10 1024.17 1024.23 1024.27 1024.28 1024.25 1024.19 1024.09 1023.97 1023.81 1023.63 1023.43 1023.21 1022.99 1022.77
1017.77 1017.82 1018.04 1018.39 1018.85 1019.37 1019.93 1020.49 1021.03 1021.53 1021.98 1022.39 1022.74 1023.05 1023.32 1023.55 1023.74 1023.90 1024.02 1024.11 1024.17 1024.21 1024.23 1024.24 1024.26 1024.27 1024.29 1024.33 1024.38 1024.43 1024.48 1024.53 1024.56 1024.56 1024.54 1024.48 1024.37 1024.23 1024.05 1023.84 1023.61 1023.36 1023.10 1022.84
1017.52 1017.65 1017.96 1018.40 1018.94 1019.55 1020.17 1020.78 1021.35 1021.86 1022.30 1022.69 1023.02 1023.31 1023.55 1023.76 1023.95 1024.12 1024.26 1024.38 1024.47 1024.55 1024.60 1024.63 1024.65 1024.67 1024.69 1024.72 1024.75 1024.79 1024.83 1024.87 1024.89 1024.90 1024.88 1024.81 1024.71 1024.56 1024.37 1024.14 1023.88 1023.60 1023.31 1023.03
1017.41 1017.62 1017.99 1018.49 1019.08 1019.72 1020.36 1020.98 1021.54 1022.04 1022.47 1022.84 1023.15 1023.42 1023.66 1023.87 1024.07 1024.26 1024.43 1024.58 1024.72 1024.83 1024.91 1024.97 1025.01 1025.04 1025.07 1025.09 1025.12 1025.15 1025.18 1025.21 1025.24 1025.24 1025.22 1025.16 1025.06 1024.91 1024.71 1024.48 1024.20 1023.92 1023.61 1023.32
1017.45 1017.70 1018.10 1018.62 1019.22 1019.85 1020.47 1021.06 1021.60 1022.07 1022.48 1022.83 1023.13 1023.39 1023.64 1023.87 1024.10 1024.32 1024.52 1024.72 1024.89 1025.04 1025.15 1025.24 1025.30 1025.34 1025.37 1025.40 1025.42 1025.44 1025.48 1025.51 1025.53 1025.54 1025.52 1025.46 1025.36 1025.22 1025.02 1024.79 1024.52 1024.23 1023.93 1023.64
1017.61 1017.88 1018.29 1018.79 1019.35 1019.94 1020.52 1021.06 1021.55 1021.98 1022.36 1022.69 1022.99 1023.27 1023.53 1023.79 1024.05 1024.30 1024.55 1024.78 1024.98 1025.16 1025.30 1025.40 1025.48 1025.53 1025.56 1025.58 1025.61 1025.63 1025.66 1025.69 1025.71 1025.72 1025.70 1025.65 1025.56 1025.42 1025.23 1025.01 1024.75 1024.48 1024.19 1023.91
1017.85 1018.13 1018.52 1018.98 1019.48 1020.00 1020.51 1020.98 1021.42 1021.81 1022.16 1022.48 1022.79 1023.08 1023.36 1023.65 1023.94 1024.23 1024.50 1024.76 1024.98 1025.17 1025.33 1025.44 1025.52 1025.57 1025.60 1025.63 1025.65 1025.67 1025.69 1025.72 1025.74 1025.75 1025.73 1025.69 1025.60 1025.47 1025.30 1025.09 1024.86 1024.60 1024.34 1024.08
1018.15 1018.42 1018.76 1019.16 1019.59 1020.03 1020.46 1020.86 1021.24 1021.59 1021.92 1022.24 1022.54 1022.85 1023.16 1023.48 1023.79 1024.09 1024.38 1024.65 1024.88 1025.07 1025.22 1025.33 1025.41 1025.46 1025.49 1025.51 1025.53 1025.55 1025.58 1025.60 1025.63 1025.64 1025.63 1025.58 1025.50 1025.38 1025.23 1025.04 1024.82 1024.59 1024.35 1024.12
1018.44 1018.68 1018.98 1019.31 1019.65 1020.00 1020.35 1020.69 1021.01 1021.33 1021.64 1021.95 1022.27 1022.59 1022.92 1023.25 1023.58 1023.89 1024.18 1024.44 1024.67 1024.85 1024.99 1025.09 1025.16 1025.20 1025.23 1025.25 1025.28 1025.31 1025.34 1025.37 1025.40 1025.41 1025.40 1025.36 1025.29 1025.18 1025.04 1024.86 1024.66 1024.45 1024.24 1024.03
1018.67 1018.87 1019.10 1019.35 1019.62 1019.89 1020.16 1020.44 1020.71 1021.00 1021.30 1021.60 1021.93 1022.26 1022.61 1022.95 1023.28 1023.59 1023.88 1024.13 1024.34 1024.50 1024.63 1024.72 1024.79 1024.83 1024.87 1024.90 1024.94 1024.98 1025.02 1025.07 1025.10 1025.12 1025.12 1025.09 1025.02 1024.92 1024.78 1024.62 1024.44 1024.24 1024.04 1023.85
1018.77 1018.92 1019.08 1019.26 1019.44 1019.63 1019.84 1020.06 1020.30 1020.56 1020.85 1021.16 1021.49 1021.84 1022.19 1022.54 1022.88 1023.19 1023.47 1023.71 1023.91 1024.06 1024.18 1024.27 1024.34 1024.40 1024.45 1024.50 1024.56 1024.62 1024.69 1024.75 1024.80 1024.83 1024.83 1024.80 1024.74 1024.64 1024.51 1024.35 1024.18 1023.99 1023.80 1023.61
1018.71 1018.80 1018.88 1018.97 1019.08 1019.20 1019.34 1019.52 1019.73 1019.98 1020.26 1020.58 1020.92 1021.29 1021.65 1022.02 1022.36 1022.68 1022.96 1023.20 1023.39 1023.56 1023.68 1023.79 1023.88 1023.96 1024.03 1024.12 1024.20 1024.29 1024.38 1024.45 1024.52 1024.56 1024.56 1024.54 1024.48 1024.38 1024.25 1024.09 1023.91 1023.72 1023.52 1023.32
1018.48 1018.49 1018.49 1018.50 1018.53 1018.58 1018.67 1018.81 1019.00 1019.23 1019.52 1019.85 1020.21 1020.60 1020.99 1021.37 1021.73 1022.07 1022.36 1022.62 1022.84 1023.02 1023.18 1023.31 1023.43 1023.54 1023.66 1023.77 1023.89 1024.00 1024.11 1024.20 1024.27 1024.31 1024.32 1024.29 1024.22 1024.12 1023.98 1023.81 1023.63 1023.43 1023.22 1023.00
1018.11 1018.02 1017.94 1017.86 1017.81 1017.81 1017.85 1017.95 1018.12 1018.36 1018.65 1019.00 1019.39 1019.80 1020.22 1020.64 1021.03 1021.40 1021.73 1022.03 1022.28 1022.50 1022.70 1022.87 1023.03 1023.19 1023.33 1023.48 1023.62 1023.75 1023.87 1023.96 1024.03 1024.07 1024.06 1024.02 1023.94 1023.82 1023.67 1023.49 1023.29 1023.07 1022.85 1022.61
Thickness
5676 5684 5686 5685 5686 5687 5680 5673 5664 5670 5674 5681 5688 5691 5692 5692 5691 5689 5687 5686 5684 5682 5680 5677 5674 5671 5669 5665 5662 5659 5654 5650 5645 5642 5638 5635 5632 5629 5627 5625 5624 5622 5620 5619
5670 5680 5680 5678 5682 5684 5682 5679 5674 5674 5674 5685 5688 5687 5685 5684 5684 5681 5680 5680 5678 5676 5675 5672 5669 5666 5663 5659 5656 5653 5648 5643 5639 5635 5631 5628 5625 5622 5620 5618 5616 5614 5613 5612
5651 5664 5668 5661 5675 5677 5677 5679 5676 5669 5673 5681 5680 5680 5679 5679 5678 5676 5675 5674 5673 5670 5668 5667 5665 5662 5657 5654 5650 5645 5641 5637 5633 5628 5624 5621 5618 5615 5612 5610 5608 5607 5605 5605
5641 5648 5644 5662 5678 5680 5675 5674 5676 5675 5675 5676 5677 5676 5677 5677 5673 5671 5670 5668 5666 5664 5662 5661 5659 5656 5652 5647 5642 5638 5634 5630 5626 5621 5617 5613 5610 5607 5605 5603 5601 5600 5598 5598
5631 5631 5640 5659 5671 5671 5666 5663 5670 5669 5671 5671 5671 5668 5665 5670 5670 5667 5666 5664 5661 5660 5658 5655 5652 5649 5644 5639 5635 5630 5626 5623 5619 5615 5610 5606 5603 5600 5598 5596 5594 5593 5592 5591
5626 5626 5628 5650 5667 5672 5663 5650 5665 5666 5664 5663 5661 5648 5650 5661 5662 5661 5660 5658 5656 5654 5651 5648 5645 5641 5636 5631 5626 5622 5620 5617 5613 5608 5604 5600 5597 5594 5591 5588 5587 5585 5584 5583
5621 5620 5631 5651 5662 5663 5642 5644 5659 5660 5659 5657 5652 5650 5652 5655 5654 5653 5652 5650 5649 5646 5642 5640 5637 5633 5628 5623 5619 5617 5614 5610 5605 5602 5598 5594 5590 5587 5583 5580 5578 5576 5575 5574
5614 5612 5625 5651 5653 5645 5644 5652 5654 5654 5654 5651 5649 5649 5648 5647 5645 5644 5642 5641 5640 5636 5633 5631 5628 5625 5620 5615 5614 5611 5606 5602 5598 5594 5591 5588 5583 5579 5576 5572 5569 5567 5565 5564
5623 5627 5640 5647 5648 5650 5649 5646 5646 5646 5647 5646 5643 5640 5639 5637 5636 5635 5634 5632 5630 5627 5623 5621 5619 5616 5611 5609 5606 5602 5598 5593 5590 5586 5583 5580 5576 5572 5568 5565 5561 5559 5557 5556
5621 5628 5635 5638 5641 5643 5643 5642 5641 5642 5641 5639 5635 5632 5630 5628 5626 5625 5624 5622 5620 5617 5613 5610 5608 5606 5603 5601 5597 5594 5589 5585 5582 5578 5575 5572 5568 5565 5561 5558 5555 5552 5550 5548
5615 5622 5626 5630 5632 5634 5635 5636 5634 5634 5633 5630 5627 5624 5622 5618 5617 5616 5614 5612 5611 5607 5604 5601 5599 5597 5594 5591 5588 5584 5580 5577 5573 5569 5566 5563 5560 5557 5555 5553 5551 5548 5545 5542
5611 5619 5616 5619 5625 5627 5626 5626 5626 5624 5622 5621 5619 5615 5612 5609 5608 5606 5604 5602 5600 5598 5595 5593 5591 5588 5585 5583 5580 5576 5571 5567 5564 5560 5557 5554 5550 5547 5545 5544 5543 5541 5539 5537
5616 5619 5617 5619 5619 5619 5618 5617 5617 5616 5614 5611 5609 5607 5603 5600 5599 5597 5595 5593 5590 5588 5586 5584 5582 5579 5577 5574 5571 5567 5563 5559 5555 5552 5549 5545 5543 5540 5537 5535 5533 5532 5530 5529
5612 5611 5608 5610 5610 5611 5610 5609 5607 5606 5604 5603 5600 5598 5595 5592 5590 5587 5585 5584 5582 5580 5578 5575 5573 5570 5568 5566 5563 5559 5555 5552 5548 5544 5541 5537 5534 5531 5529 5526 5523 5521 5520 5519
5603 5604 5602 5602 5602 5601 5601 5598 5595 5593 5592 5591 5590 5588 5586 5583 5580 5578 5577 5575 5573 5571 5568 5566 5564 5562 5560 5557 5554 5550 5547 5543 5540 5536 5533 5529 5526 5522 5519 5516 5514 5511 5509 5508
5595 5595 5593 5592 5592 5591 5589 5587 5584 5583 5583 5582 5580 5579 5577 5575 5572 5570 5568 5566 5563 5560 5559 5557 5555 5553 5551 5548 5545 5541 5538 5536 5532 5527 5523 5520 5516 5512 5509 5507 5504 5502 5500 5498
5584 5583 5582 5581 5581 5580 5579 5578 5577 5576 5574 5573 5572 5571 5568 5565 5562 5560 5558 5556 5554 5552 5550 5548 5546 5545 5542 5539 5536 5532 5529 5525 5523 5518 5514 5510 5507 5504 5501 5497 5495 5493 5491 5489
5582 5580 5578 5576 5573 5571 5570 5570 5569 5567 5566 5565 5563 5561 5558 5555 5552 5550 5549 5547 5544 5542 5540 5539 5537 5535 5532 5530 5526 5522 5519 5515 5511 5508 5504 5501 5498 5495 5492 5489 5486 5484 5482 5480
5574 5572 5570 5569 5566 5564 5562 5561 5560 5558 5557 5556 5554 5551 5549 5547 5544 5542 5540 5537 5534 5531 5530 5529 5528 5524 5521 5519 5516 5513 5509 5506 5502 5498 5494 5492 5488 5485 5482 5479 5477 5475 5472 5470
5566 5565 5563 5560 5558 5556 5554 5553 5551 5549 5548 5546 5544 5541 5538 5536 5535 5533 5530 5527 5525 5523 5522 5520 5517 5514 5511 5509 5506 5502 5498 5495 5491 5488 5484 5481 5478 5475 5472 5470 5468 5465 5463 5461
5556 5555 5554 5551 5550 5548 5546 5544 5542 5540 5539 5537 5534 5531 5529 5527 5525 5523 5519 5516 5516 5515 5513 5511 5507 5504 5502 5499 5496 5492 5488 5484 5481 5477 5475 5472 5469 5466 5463 5461 5458 5456 5454 5452
5546 5545 5544 5542 5540 5538 5536 5535 5533 5531 5529 5527 5525 5522 5519 5516 5515 5512 5510 5508 5507 5506 5503 5500 5497 5496 5493 5490 5486 5482 5478 5475 5471 5468 5465 5463 5460 5457 5455 5452 5450 5448 5446 5443
5536 5535 5534 5532 5530 5527 5526 5525 5523 5521 5519 5517 5515 5513 5510 5508 5505 5502 5500 5499 5498 5497 5493 5490 5489 5488 5485 5480 5476 5473 5469 5466 5463 5460 5457 5455 5452 5450 5447 5444 5442 5440 5437 5434
5527 5525 5524 5522 5520 5517 5515 5514 5512 5511 5508 5507 5505 5503 5501 5498 5496 5495 5493 5492 5491 5488 5484 5482 5481 5479 5475 5470 5466 5463 5460 5457 5455 5452 5449 5446 5444 5441 5438 5436 5433 5431 5428 5426
5517 5515 5514 5511 5509 5507 5505 5503 5501 5499 5497 5495 5494 5493 5492 5490 5488 5486 5485 5483 5482 5479 5475 5473 5471 5468 5464 5460 5457 5454 5451 5449 5447 5444 5441 5438 5435 5433 5430 5428 5425 5423 5420 5418
5506 5505 5503 5502 5499 5497 5495 5492 5490 5488 5486 5484 5483 5482 5481 5480 5479 5477 5475 5473 5471 5469 5465 5462 5459 5457 5453 5451 5448 5446 5443 5441 5438 5435 5432 5429 5426 5424 5421 5419 5417 5414 5412 5410
5495 5493 5491 5489 5488 5486 5484 5482 5480 5478 5477 5475 5473 5472 5471 5470 5468 5466 5464 5462 5459 5457 5454 5451 5449 5447 5444 5442 5439 5437 5434 5431 5429 5426 5423 5420 5418 5415 5413 5410 5408 5405 5403 5401